| time (UTC) | temp F | wind direction | speed knots | gust knots | rain 1hr in | rain 24hr in | rain mn in | humidity % | barometer mb |
| 20260504081546 | 47 | 263 | 2.6 | 6.1 | 0.00 | 0.00 | 0.00 | 50 | 1013.1 |
| 20260504044554 | 47 | 226 | 1.7 | 3.5 | 0.00 | 0.00 | 0.00 | 51 | 1013.1 |
| 20260504043047 | 47 | 215 | 1.7 | 4.3 | 0.00 | 0.00 | 0.00 | 51 | 1013.0 |
| 20260504041546 | 47 | 223 | 1.7 | 4.3 | 0.00 | 0.00 | 0.00 | 51 | 1012.9 |
| 20260504040045 | 47 | 248 | 1.7 | 3.5 | 0.00 | 0.00 | 0.00 | 50 | 1012.9 |
| 20260504034551 | 47 | 230 | 2.6 | 5.2 | 0.00 | 0.00 | 0.00 | 50 | 1012.7 |
| 20260504033054 | 47 | 0 | 0.0 | 3.5 | 0.00 | 0.00 | 0.00 | 50 | 1012.7 |
| 20260504031540 | 47 | 244 | 0.9 | 3.5 | 0.00 | 0.00 | 0.00 | 50 | 1012.7 |
| 20260504030048 | 48 | 218 | 1.7 | 3.5 | 0.00 | 0.00 | 0.00 | 49 | 1012.7 |
| 20260504024546 | 48 | 217 | 1.7 | 3.5 | 0.00 | 0.00 | 0.00 | 49 | 1012.6 |
| 20260504023045 | 48 | 232 | 1.7 | 3.5 | 0.00 | 0.00 | 0.00 | 48 | 1012.7 |
| 20260504021541 | 48 | 198 | 1.7 | 4.3 | 0.00 | 0.00 | 0.00 | 48 | 1012.7 |
| 20260504020048 | 49 | 228 | 1.7 | 5.2 | 0.00 | 0.00 | 0.00 | 47 | 1012.7 |
| 20260504014550 | 49 | 246 | 1.7 | 3.5 | 0.00 | 0.00 | 0.00 | 47 | 1012.7 |
| 20260504013052 | 49 | 210 | 1.7 | 4.3 | 0.00 | 0.00 | 0.00 | 46 | 1012.7 |
| 20260504011550 | 50 | 205 | 1.7 | 5.2 | 0.00 | 0.00 | 0.00 | 45 | 1012.4 |
| 20260504010056 | 50 | 232 | 2.6 | 5.2 | 0.00 | 0.00 | 0.00 | 44 | 1012.4 |
| 20260504004550 | 51 | 267 | 1.7 | 6.1 | 0.00 | 0.00 | 0.00 | 43 | 1012.4 |
| 20260504003047 | 51 | 240 | 1.7 | 3.5 | 0.00 | 0.00 | 0.00 | 42 | 1012.3 |
| 20260504001605 | 51 | 213 | 1.7 | 3.5 | 0.00 | 0.00 | 0.00 | 41 | 1012.1 |
| 20260504000048 | 52 | 250 | 1.7 | 7.0 | 0.00 | 0.00 | 0.00 | 40 | 1011.9 |
| 20260503234547 | 52 | 261 | 2.6 | 6.1 | 0.00 | 0.00 | 0.00 | 39 | 1011.7 |
| 20260503233050 | 53 | 317 | 1.7 | 7.0 | 0.00 | 0.00 | 0.00 | 39 | 1011.6 |
| 20260503231547 | 53 | 338 | 1.7 | 9.6 | 0.00 | 0.00 | 0.00 | 38 | 1011.5 |
| 20260503230046 | 53 | 219 | 2.6 | 7.0 | 0.00 | 0.00 | 0.00 | 37 | 1011.5 |
| 20260503224544 | 54 | 298 | 3.5 | 8.7 | 0.00 | 0.00 | 0.00 | 36 | 1011.5 |
| 20260503223044 | 54 | 246 | 4.3 | 9.6 | 0.00 | 0.00 | 0.00 | 36 | 1011.3 |
| 20260503221545 | 54 | 336 | 2.6 | 9.6 | 0.00 | 0.00 | 0.00 | 37 | 1011.3 |
| 20260503214540 | 54 | 316 | 2.6 | 12.2 | 0.00 | 0.00 | 0.00 | 37 | 1011.3 |
| 20260503213049 | 55 | 302 | 3.5 | 8.7 | 0.00 | 0.00 | 0.00 | 35 | 1011.2 |
| 20260503211559 | 55 | 312 | 3.5 | 10.4 | 0.00 | 0.00 | 0.00 | 36 | 1010.9 |
| 20260503210041 | 54 | 234 | 4.3 | 11.3 | 0.00 | 0.00 | 0.00 | 35 | 1011.1 |
| 20260503204539 | 54 | 249 | 2.6 | 8.7 | 0.00 | 0.00 | 0.00 | 35 | 1010.9 |
| 20260503203046 | 54 | 304 | 3.5 | 9.6 | 0.00 | 0.00 | 0.00 | 35 | 1011.1 |
| 20260503201546 | 54 | 275 | 2.6 | 8.7 | 0.00 | 0.00 | 0.00 | 35 | 1011.1 |
| 20260503200044 | 53 | 180 | 2.6 | 16.5 | 0.00 | 0.00 | 0.00 | 35 | 1011.2 |
| 20260503194547 | 53 | 340 | 6.1 | 16.5 | 0.00 | 0.00 | 0.00 | 37 | 1011.4 |
| 20260503193048 | 52 | 284 | 3.5 | 13.0 | 0.00 | 0.00 | 0.00 | 35 | 1011.7 |
| 20260503191547 | 52 | 292 | 3.5 | 14.8 | 0.00 | 0.00 | 0.00 | 36 | 1011.6 |
| 20260503190046 | 52 | 245 | 3.5 | 13.9 | 0.00 | 0.00 | 0.00 | 37 | 1011.8 |
| 20260503184545 | 51 | 312 | 5.2 | 12.2 | 0.00 | 0.00 | 0.00 | 39 | 1012.0 |
| 20260503183042 | 51 | 313 | 4.3 | 12.2 | 0.00 | 0.00 | 0.00 | 37 | 1012.4 |
| 20260503181617 | 49 | 259 | 2.6 | 13.0 | 0.00 | 0.00 | 0.00 | 39 | 1012.3 |
| 20260503180054 | 49 | 248 | 3.5 | 9.6 | 0.00 | 0.00 | 0.00 | 38 | 1012.5 |
| 20260503174551 | 48 | 217 | 5.2 | 11.3 | 0.00 | 0.00 | 0.00 | 41 | 1012.7 |
| 20260503173052 | 47 | 39 | 5.2 | 12.2 | 0.00 | 0.00 | 0.00 | 41 | 1012.8 |
| 20260503171549 | 47 | 313 | 4.3 | 11.3 | 0.00 | 0.00 | 0.00 | 42 | 1013.0 |